Time,TemperatureF,DewpointF,PressureIn,WindDirection,WindDirectionDegrees,WindSpeedMPH,WindSpeedGustMPH,Humidity,HourlyPrecipIn,Conditions,Clouds,dailyrainin,SoftwareType,DateUTC
2013-04-09 00:05:00,59.6,54.0,29.99,SSE,163,0.0,-999.0,81,-99.99,,,0.00,weatherlink.com 1.10,2013-04-09 05:05:00,
2013-04-09 00:20:00,59.6,54.0,30.00,SSE,163,0.0,-999.0,81,-99.99,,,0.00,weatherlink.com 1.10,2013-04-09 05:20:00,
2013-04-09 00:35:00,59.0,54.0,29.99,SSE,163,0.0,-999.0,83,-99.99,,,0.00,weatherlink.com 1.10,2013-04-09 05:35:00,
2013-04-09 00:51:00,60.5,55.0,29.99,SSE,163,0.0,-999.0,82,-99.99,,,0.00,weatherlink.com 1.10,2013-04-09 05:51:00,
2013-04-09 01:05:00,64.4,56.0,29.99,South,176,0.0,-999.0,73,-99.99,,,0.00,weatherlink.com 1.10,2013-04-09 06:05:00,
2013-04-09 01:21:00,60.5,55.0,29.99,South,176,0.0,-999.0,81,-99.99,,,0.00,weatherlink.com 1.10,2013-04-09 06:21:00,
2013-04-09 01:36:00,58.6,55.0,29.98,South,176,0.0,-999.0,86,-99.99,,,0.00,weatherlink.com 1.10,2013-04-09 06:36:00,
2013-04-09 01:51:00,57.8,54.0,29.98,South,176,0.0,-999.0,88,-99.99,,,0.00,weatherlink.com 1.10,2013-04-09 06:51:00,
2013-04-09 02:06:00,57.4,54.0,29.98,South,176,0.0,-999.0,89,-99.99,,,0.00,weatherlink.com 1.10,2013-04-09 07:06:00,
2013-04-09 02:21:00,57.1,54.0,29.97,South,176,0.0,-999.0,89,-99.99,,,0.00,weatherlink.com 1.10,2013-04-09 07:21:00,
2013-04-09 02:35:00,57.2,55.0,29.97,South,176,0.0,-999.0,91,-99.99,,,0.00,weatherlink.com 1.10,2013-04-09 07:35:00,
2013-04-09 02:51:00,56.8,54.0,29.97,South,176,0.0,-999.0,91,-99.99,,,0.00,weatherlink.com 1.10,2013-04-09 07:51:00,
2013-04-09 03:06:00,56.4,54.0,29.97,South,176,0.0,-999.0,91,-99.99,,,0.00,weatherlink.com 1.10,2013-04-09 08:06:00,
2013-04-09 03:21:00,56.1,54.0,29.97,South,176,0.0,-999.0,92,-99.99,,,0.00,weatherlink.com 1.10,2013-04-09 08:21:00,
2013-04-09 03:36:00,56.4,54.0,29.97,South,176,0.0,-999.0,92,-99.99,,,0.00,weatherlink.com 1.10,2013-04-09 08:36:00,
2013-04-09 03:51:00,57.0,54.0,29.98,South,176,0.0,-999.0,90,-99.99,,,0.00,weatherlink.com 1.10,2013-04-09 08:51:00,
2013-04-09 04:06:00,56.9,54.0,29.99,SW,226,0.0,-999.0,91,-99.99,,,0.00,weatherlink.com 1.10,2013-04-09 09:06:00,
2013-04-09 04:21:00,56.6,54.0,30.00,SW,226,0.0,-999.0,91,-99.99,,,0.00,weatherlink.com 1.10,2013-04-09 09:21:00,
2013-04-09 04:36:00,56.3,54.0,30.01,SW,226,0.0,-999.0,92,-99.99,,,0.00,weatherlink.com 1.10,2013-04-09 09:36:00,
2013-04-09 04:51:00,56.1,54.0,30.01,SSW,213,0.0,-999.0,92,-99.99,,,0.00,weatherlink.com 1.10,2013-04-09 09:51:00,
2013-04-09 05:06:00,56.1,54.0,30.02,SSW,213,0.0,-999.0,92,-99.99,,,0.00,weatherlink.com 1.10,2013-04-09 10:06:00,
2013-04-09 05:21:00,56.0,54.0,30.03,SSW,213,0.0,-999.0,92,-99.99,,,0.00,weatherlink.com 1.10,2013-04-09 10:21:00,
2013-04-09 05:36:00,56.0,54.0,30.03,SSW,213,0.0,-999.0,93,-99.99,,,0.00,weatherlink.com 1.10,2013-04-09 10:36:00,
2013-04-09 05:51:00,55.9,54.0,30.03,SSW,213,0.0,-999.0,93,-99.99,,,0.00,weatherlink.com 1.10,2013-04-09 10:51:00,
2013-04-09 06:06:00,55.8,54.0,30.03,SSW,213,0.0,-999.0,92,-99.99,,,0.00,weatherlink.com 1.10,2013-04-09 11:06:00,
2013-04-09 06:21:00,55.4,54.0,30.04,SSW,213,0.0,-999.0,93,-99.99,,,0.00,weatherlink.com 1.10,2013-04-09 11:21:00,
2013-04-09 06:36:00,55.3,54.0,30.04,ESE,110,0.0,-999.0,94,-99.99,,,0.00,weatherlink.com 1.10,2013-04-09 11:36:00,
2013-04-09 06:51:00,55.6,54.0,30.04,East,89,0.0,-999.0,94,-99.99,,,0.00,weatherlink.com 1.10,2013-04-09 11:51:00,
2013-04-09 07:06:00,56.1,54.0,30.04,NE,38,0.0,-999.0,94,-99.99,,,0.00,weatherlink.com 1.10,2013-04-09 12:06:00,
2013-04-09 07:21:00,59.7,56.0,30.04,ENE,78,0.0,-999.0,87,-99.99,,,0.00,weatherlink.com 1.10,2013-04-09 12:21:00,
2013-04-09 07:36:00,61.8,57.0,30.05,North,355,0.0,-999.0,83,-99.99,,,0.00,weatherlink.com 1.10,2013-04-09 12:36:00,
2013-04-09 07:51:00,62.3,57.0,30.05,North,5,5.0,-999.0,84,-99.99,,,0.00,weatherlink.com 1.10,2013-04-09 12:51:00,
2013-04-09 08:06:00,62.4,57.0,30.06,North,5,0.0,-999.0,83,-99.99,,,0.00,weatherlink.com 1.10,2013-04-09 13:06:00,
2013-04-09 08:21:00,62.1,57.0,30.06,North,5,1.0,-999.0,82,-99.99,,,0.00,weatherlink.com 1.10,2013-04-09 13:21:00,
2013-04-09 08:36:00,62.4,57.0,30.06,North,9,0.0,-999.0,83,-99.99,,,0.00,weatherlink.com 1.10,2013-04-09 13:36:00,
2013-04-09 08:51:00,63.1,57.0,30.07,North,9,0.0,-999.0,81,-99.99,,,0.00,weatherlink.com 1.10,2013-04-09 13:51:00,
2013-04-09 09:06:00,63.0,57.0,30.08,NNW,346,0.0,-999.0,81,-99.99,,,0.00,weatherlink.com 1.10,2013-04-09 14:06:00,
2013-04-09 09:21:00,65.4,58.0,30.08,NNW,339,6.0,-999.0,77,-99.99,,,0.00,weatherlink.com 1.10,2013-04-09 14:21:00,
2013-04-09 09:36:00,65.9,58.0,30.08,NW,321,7.0,-999.0,75,-99.99,,,0.00,weatherlink.com 1.10,2013-04-09 14:36:00,
2013-04-09 09:51:00,66.5,58.0,30.10,NW,319,0.0,-999.0,75,-99.99,,,0.00,weatherlink.com 1.10,2013-04-09 14:51:00,
2013-04-09 10:06:00,67.8,59.0,30.11,NW,319,0.0,-999.0,73,-99.99,,,0.00,weatherlink.com 1.10,2013-04-09 15:06:00,
2013-04-09 10:21:00,69.0,59.0,30.11,NW,319,0.0,-999.0,70,-99.99,,,0.00,weatherlink.com 1.10,2013-04-09 15:21:00,
2013-04-09 10:36:00,70.8,59.0,30.11,NW,319,0.0,-999.0,67,-99.99,,,0.00,weatherlink.com 1.10,2013-04-09 15:36:00,
2013-04-09 10:51:00,72.7,59.0,30.11,South,182,6.0,-999.0,63,-99.99,,,0.00,weatherlink.com 1.10,2013-04-09 15:51:00,
2013-04-09 11:06:00,73.8,60.0,30.11,NNW,328,0.0,-999.0,62,-99.99,,,0.00,weatherlink.com 1.10,2013-04-09 16:06:00,
2013-04-09 11:21:00,75.4,60.0,30.10,NW,304,2.0,-999.0,59,-99.99,,,0.00,weatherlink.com 1.10,2013-04-09 16:21:00,
2013-04-09 11:36:00,76.4,59.0,30.09,SW,231,9.0,-999.0,55,-99.99,,,0.00,weatherlink.com 1.10,2013-04-09 16:36:00,
2013-04-09 11:51:00,76.7,59.0,30.09,SW,233,2.0,-999.0,55,-99.99,,,0.00,weatherlink.com 1.10,2013-04-09 16:51:00,
2013-04-09 12:07:00,77.0,58.0,30.08,SW,219,5.0,-999.0,53,-99.99,,,0.00,weatherlink.com 1.10,2013-04-09 17:07:00,
2013-04-09 12:21:00,77.7,59.0,30.07,SE,144,2.0,-999.0,53,-99.99,,,0.00,weatherlink.com 1.10,2013-04-09 17:21:00,
2013-04-09 12:36:00,77.6,58.0,30.07,SW,232,3.0,-999.0,52,-99.99,,,0.00,weatherlink.com 1.10,2013-04-09 17:36:00,
2013-04-09 12:51:00,78.1,59.0,30.07,ESE,103,6.0,-999.0,53,-99.99,,,0.00,weatherlink.com 1.10,2013-04-09 17:51:00,
2013-04-09 13:06:00,79.0,58.0,30.06,South,175,5.0,-999.0,49,-99.99,,,0.00,weatherlink.com 1.10,2013-04-09 18:06:00,
2013-04-09 13:21:00,78.7,58.0,30.05,South,191,16.0,-999.0,50,-99.99,,,0.00,weatherlink.com 1.10,2013-04-09 18:21:00,
2013-04-09 13:36:00,79.0,59.0,30.05,SSE,159,12.0,-999.0,50,-99.99,,,0.00,weatherlink.com 1.10,2013-04-09 18:36:00,
2013-04-09 13:51:00,79.6,59.0,30.04,East,89,0.0,-999.0,49,-99.99,,,0.00,weatherlink.com 1.10,2013-04-09 18:51:00,
2013-04-09 14:06:00,80.3,58.0,30.04,South,184,11.0,-999.0,47,-99.99,,,0.00,weatherlink.com 1.10,2013-04-09 19:06:00,
2013-04-09 14:21:00,80.0,59.0,30.03,South,190,4.0,-999.0,49,-99.99,,,0.00,weatherlink.com 1.10,2013-04-09 19:21:00,
2013-04-09 14:36:00,81.4,60.0,30.02,SW,215,6.0,-999.0,48,-99.99,,,0.00,weatherlink.com 1.10,2013-04-09 19:36:00,
2013-04-09 14:52:00,81.1,60.0,30.01,SSE,166,6.0,-999.0,48,-99.99,,,0.00,weatherlink.com 1.10,2013-04-09 19:52:00,
2013-04-09 15:06:00,81.4,59.0,30.01,SSE,166,15.0,-999.0,47,-99.99,,,0.00,weatherlink.com 1.10,2013-04-09 20:06:00,
2013-04-09 15:21:00,80.9,59.0,30.00,SE,135,4.0,-999.0,48,-99.99,,,0.00,weatherlink.com 1.10,2013-04-09 20:21:00,
2013-04-09 15:36:00,82.2,59.0,30.00,SSW,198,4.0,-999.0,45,-99.99,,,0.00,weatherlink.com 1.10,2013-04-09 20:36:00,
2013-04-09 15:51:00,81.6,58.0,30.00,SSE,163,5.0,-999.0,45,-99.99,,,0.00,weatherlink.com 1.10,2013-04-09 20:51:00,
2013-04-09 16:06:00,81.3,58.0,29.99,SE,143,1.0,-999.0,45,-99.99,,,0.00,weatherlink.com 1.10,2013-04-09 21:06:00,
2013-04-09 16:21:00,81.0,58.0,29.98,SSW,196,1.0,-999.0,46,-99.99,,,0.00,weatherlink.com 1.10,2013-04-09 21:21:00,
2013-04-09 16:36:00,80.7,58.0,29.96,SE,132,3.0,-999.0,46,-99.99,,,0.00,weatherlink.com 1.10,2013-04-09 21:36:00,
2013-04-09 16:51:00,81.6,59.0,29.95,SE,126,8.0,-999.0,46,-99.99,,,0.00,weatherlink.com 1.10,2013-04-09 21:51:00,
2013-04-09 17:06:00,82.3,59.0,29.96,South,187,5.0,-999.0,46,-99.99,,,0.00,weatherlink.com 1.10,2013-04-09 22:06:00,
2013-04-09 17:21:00,82.1,59.0,29.97,SSE,147,10.0,-999.0,45,-99.99,,,0.00,weatherlink.com 1.10,2013-04-09 22:21:00,
2013-04-09 17:37:00,82.4,59.0,29.97,SSW,208,0.0,-999.0,45,-99.99,,,0.00,weatherlink.com 1.10,2013-04-09 22:37:00,
2013-04-09 17:51:00,82.2,59.0,29.97,SSE,162,11.0,-999.0,45,-99.99,,,0.00,weatherlink.com 1.10,2013-04-09 22:51:00,
2013-04-09 18:06:00,82.0,59.0,29.97,SSE,163,0.0,-999.0,45,-99.99,,,0.00,weatherlink.com 1.10,2013-04-09 23:06:00,
2013-04-09 18:36:00,81.0,59.0,29.97,SSE,162,4.0,-999.0,47,-99.99,,,0.00,weatherlink.com 1.10,2013-04-09 23:36:00,
2013-04-09 18:51:00,80.1,59.0,29.97,SW,225,0.0,-999.0,48,-99.99,,,0.00,weatherlink.com 1.10,2013-04-09 23:51:00,
2013-04-09 19:06:00,79.1,59.0,29.97,South,169,0.0,-999.0,50,-99.99,,,0.00,weatherlink.com 1.10,2013-04-10 00:06:00,
2013-04-09 19:21:00,77.9,59.0,29.98,South,190,0.0,-999.0,52,-99.99,,,0.00,weatherlink.com 1.10,2013-04-10 00:21:00,
2013-04-09 19:36:00,77.1,58.0,29.98,South,179,4.0,-999.0,52,-99.99,,,0.00,weatherlink.com 1.10,2013-04-10 00:36:00,
2013-04-09 19:51:00,76.5,58.0,29.98,South,180,0.0,-999.0,53,-99.99,,,0.00,weatherlink.com 1.10,2013-04-10 00:51:00,
2013-04-09 20:06:00,75.3,58.0,29.98,SSE,153,0.0,-999.0,56,-99.99,,,0.00,weatherlink.com 1.10,2013-04-10 01:06:00,
2013-04-09 20:21:00,74.0,58.0,29.99,SSE,153,0.0,-999.0,58,-99.99,,,0.00,weatherlink.com 1.10,2013-04-10 01:21:00,
2013-04-09 20:36:00,73.7,58.0,29.99,South,180,0.0,-999.0,58,-99.99,,,0.00,weatherlink.com 1.10,2013-04-10 01:36:00,
2013-04-09 20:51:00,72.4,59.0,30.00,South,180,0.0,-999.0,62,-99.99,,,0.00,weatherlink.com 1.10,2013-04-10 01:51:00,
2013-04-09 21:06:00,72.2,58.0,30.00,South,169,0.0,-999.0,61,-99.99,,,0.00,weatherlink.com 1.10,2013-04-10 02:06:00,
2013-04-09 21:21:00,71.1,57.0,30.00,South,169,0.0,-999.0,62,-99.99,,,0.00,weatherlink.com 1.10,2013-04-10 02:21:00,
2013-04-09 21:36:00,70.2,58.0,30.01,South,169,0.0,-999.0,65,-99.99,,,0.00,weatherlink.com 1.10,2013-04-10 02:36:00,
2013-04-09 22:06:00,67.7,58.0,30.01,South,169,0.0,-999.0,70,-99.99,,,0.00,weatherlink.com 1.10,2013-04-10 03:06:00,
2013-04-09 22:36:00,67.4,58.0,30.01,South,169,0.0,-999.0,71,-99.99,,,0.00,weatherlink.com 1.10,2013-04-10 03:36:00,
2013-04-09 22:51:00,65.6,58.0,30.01,South,169,0.0,-999.0,76,-99.99,,,0.00,weatherlink.com 1.10,2013-04-10 03:51:00,
2013-04-09 23:06:00,65.7,58.0,30.00,South,169,0.0,-999.0,75,-99.99,,,0.00,weatherlink.com 1.10,2013-04-10 04:06:00,
2013-04-09 23:36:00,63.8,58.0,30.00,South,169,0.0,-999.0,80,-99.99,,,0.00,weatherlink.com 1.10,2013-04-10 04:36:00,
2013-04-09 23:51:00,63.2,58.0,30.00,South,169,0.0,-999.0,82,-99.99,,,0.00,weatherlink.com 1.10,2013-04-10 04:51:00,